Find RROCI-2

NORAD ID: 59106 Int'l Des: 2024-043 Owner: SFSSC/ORISS Country: US operational
LEOCIRCULARRETROGRADESSO

Live Position

Loading 3D Globe...

About RROCI-2

Description loading...

Upcoming Passes

Passes for default location (London). Set your location on the main map for personalized predictions.

Altitude History

Loading altitude history...

Two-Line Element Set

1 59106U 24043J 26106.60528992 .00000817 00000-0 71263-4 0 9999
2 59106 97.8381 238.9274 0006140 206.4652 153.6258 14.99641883115538
Epoch: Apr 16, 2026 • Age: 18 hours

Current Status

Altitude 578.5 km
Velocity 7.58 km/s
Sub-Earth Point 62.23°N, 99.33°E
Launch Date Mar 4, 2024
Age 2.1 years
Type other

Technical Details

Classification Payload
Mass 19.00 kg
Dry Mass 19.00 kg
Total Mass 19.00 kg
Length 0.30 m
Diameter 0.20 m
Span 1.00 m
Shape Box+2 pan
Manufacturer ORISS
Bus Type Cubesat 12U
Phase Status In Orbit
Owner/State SFSSC/ORISS/US

Most Searched